TimeCST,TemperatureF,Dew PointF,Humidity,Sea Level PressureIn,VisibilityMPH,Wind Direction,Wind SpeedMPH,Gust SpeedMPH,PrecipitationIn,Events,Conditions,WindDirDegrees,DateUTC
12:56 AM,19.0,16.0,88,30.51,10.0,Calm,Calm,-,N/A,,Clear,0,2012-11-16 06:56:00
1:56 AM,16.0,14.0,92,30.51,10.0,Calm,Calm,-,N/A,,Clear,0,2012-11-16 07:56:00
2:56 AM,16.0,12.9,88,30.51,10.0,North,4.6,-,N/A,,Clear,10,2012-11-16 08:56:00
3:56 AM,15.1,12.0,88,30.49,10.0,NNE,3.5,-,N/A,,Clear,20,2012-11-16 09:56:00
4:56 AM,14.0,10.9,88,30.48,10.0,Calm,Calm,-,N/A,,Clear,0,2012-11-16 10:56:00
5:56 AM,14.0,12.0,92,30.48,10.0,Calm,Calm,-,N/A,,Clear,0,2012-11-16 11:56:00
6:56 AM,15.1,12.9,91,30.49,10.0,Calm,Calm,-,N/A,,Clear,0,2012-11-16 12:56:00
7:56 AM,17.1,14.0,88,30.50,10.0,Calm,Calm,-,N/A,,Clear,0,2012-11-16 13:56:00
8:56 AM,26.1,19.0,75,30.49,10.0,SE,6.9,-,N/A,,Clear,140,2012-11-16 14:56:00
9:56 AM,30.9,19.0,61,30.49,10.0,South,12.7,-,N/A,,Clear,170,2012-11-16 15:56:00
10:56 AM,35.1,21.0,57,30.48,10.0,South,11.5,-,N/A,,Clear,180,2012-11-16 16:56:00
11:56 AM,43.0,23.0,45,30.43,10.0,South,10.4,-,N/A,,Clear,170,2012-11-16 17:56:00
12:56 PM,46.0,25.0,44,30.39,10.0,South,11.5,-,N/A,,Clear,170,2012-11-16 18:56:00
1:56 PM,46.0,26.1,46,30.35,10.0,SSE,10.4,-,N/A,,Clear,150,2012-11-16 19:56:00
2:56 PM,48.0,27.0,44,30.32,10.0,SSE,16.1,-,N/A,,Clear,150,2012-11-16 20:56:00
3:56 PM,48.0,27.0,44,30.30,10.0,South,16.1,-,N/A,,Clear,170,2012-11-16 21:56:00
4:56 PM,46.0,28.9,51,30.29,10.0,SSE,16.1,-,N/A,,Clear,150,2012-11-16 22:56:00
5:56 PM,44.1,28.9,55,30.28,10.0,SSE,16.1,-,N/A,,Clear,160,2012-11-16 23:56:00
6:56 PM,43.0,30.0,60,30.27,10.0,South,15.0,-,N/A,,Clear,170,2012-11-17 00:56:00
7:56 PM,43.0,30.0,60,30.26,10.0,South,16.1,-,N/A,,Clear,170,2012-11-17 01:56:00
8:56 PM,42.1,30.9,65,30.24,10.0,South,18.4,23.0,N/A,,Clear,170,2012-11-17 02:56:00
9:56 PM,42.1,30.9,65,30.25,10.0,South,12.7,-,N/A,,Clear,180,2012-11-17 03:56:00
10:56 PM,42.1,32.0,67,30.24,10.0,South,16.1,23.0,N/A,,Clear,180,2012-11-17 04:56:00
11:56 PM,42.1,33.1,70,30.23,10.0,South,15.0,23.0,N/A,,Clear,180,2012-11-17 05:56:00